Temperature
21 21 21 21 24 24 23 23 23 23 23 22 22 22 22 21 21 20 18 17 17 17 16 17 17 17 17 17 17 17 17 17 17 17 17 17 17 17 17 17 17 17 17 17 17 17 18 18 18
21 21 21 23 25 24 23 23 23 23 22 21 21 21 22 21 19 19 17 17 17 17 16 16 17 17 17 17 17 17 17 17 17 17 17 17 17 17 17 17 17 17 17 17 17 17 17 17 17
21 21 22 24 24 24 23 23 23 23 22 22 22 21 21 20 19 18 17 17 17 17 16 16 17 17 17 17 17 17 17 17 17 17 17 17 17 17 17 17 17 17 17 17 17 17 17 17 17
21 21 23 24 23 23 23 23 23 23 22 22 22 22 20 19 18 18 17 17 17 17 16 16 17 17 17 17 17 17 17 17 17 17 17 17 17 17 17 17 17 17 17 17 17 17 17 17 17
21 23 24 24 23 23 24 23 23 24 23 22 22 22 20 18 18 18 17 17 17 17 16 16 17 17 17 17 17 17 16 16 17 16 17 17 17 17 17 17 17 17 17 17 17 17 17 17 17
22 24 24 23 23 23 23 23 23 23 23 22 22 22 20 18 18 17 17 17 17 17 16 16 17 17 17 17 17 16 16 16 16 16 16 16 16 16 16 17 16 16 16 16 16 16 16 16 17
23 24 24 23 23 23 23 23 23 23 23 22 22 22 20 19 18 17 17 17 17 17 17 16 16 16 16 17 16 16 16 16 16 16 16 16 16 16 16 16 16 16 16 16 16 16 16 16 16
22 24 24 24 23 23 23 23 22 23 22 21 21 22 21 19 18 17 17 17 17 17 17 17 16 16 16 16 16 16 16 16 16 16 16 16 16 16 16 16 16 16 16 16 16 16 16 16 16
23 24 24 23 23 23 23 23 22 22 22 21 21 21 20 19 18 18 18 18 17 17 17 17 17 16 16 16 16 16 16 16 16 16 16 16 16 16 16 16 16 16 16 16 16 16 16 16 16
24 24 23 24 24 24 23 23 23 22 22 22 21 20 19 18 18 18 19 18 18 18 17 17 17 17 16 16 16 16 16 16 16 16 16 16 16 16 16 16 16 16 16 16 16 16 16 16 16
24 24 24 23 23 23 23 23 22 23 23 22 21 20 19 19 19 19 19 19 18 18 17 17 17 17 16 16 16 16 16 16 16 16 16 16 16 16 16 16 16 16 16 16 15 15 15 15 15
24 24 23 23 22 22 23 23 23 22 22 22 21 20 20 19 19 19 19 19 18 18 17 17 17 17 17 16 16 16 16 16 16 16 16 16 16 16 15 15 15 15 15 15 15 15 15 15 15
24 23 23 22 22 22 22 23 22 22 21 21 20 20 20 20 20 19 19 19 18 18 17 17 17 17 17 16 16 16 16 16 16 15 16 16 15 15 15 15 15 15 15 15 15 15 15 15 15
23 23 23 23 23 22 23 23 22 22 21 21 21 20 20 20 20 19 19 19 18 18 18 17 17 17 17 16 16 16 16 16 16 15 15 15 15 15 15 15 15 15 15 15 15 15 15 15 15
23 24 24 23 23 23 23 23 23 22 21 21 21 21 20 20 20 19 19 19 19 18 18 17 17 17 17 16 16 16 16 16 16 15 15 15 15 15 15 15 15 15 15 15 15 14 14 14 14
24 24 24 23 23 23 23 23 23 22 22 22 22 21 20 20 20 19 19 19 18 18 18 17 17 17 17 16 16 16 16 16 15 15 15 15 15 15 15 15 15 14 14 14 14 14 14 14 14
24 24 24 23 23 23 23 23 23 22 22 22 22 22 21 20 20 19 19 19 18 18 18 18 17 17 17 16 16 16 16 16 16 15 15 15 15 15 15 15 14 14 14 14 14 14 14 14 14
24 24 24 23 23 23 23 23 24 22 22 22 22 22 21 21 20 20 19 18 18 18 18 18 17 17 17 16 16 16 16 16 15 15 15 15 15 15 15 14 14 14 14 14 14 14 14 14 14
24 24 24 24 24 23 23 23 24 23 22 22 22 22 21 21 20 19 19 18 18 18 18 17 17 17 17 16 16 16 16 16 15 15 15 15 15 14 14 14 14 14 14 14 14 14 14 13 13
24 24 24 24 23 23 23 23 24 23 22 22 22 22 21 21 20 19 19 18 18 18 18 18 17 17 17 16 16 16 16 16 15 15 15 15 14 14 14 14 14 14 14 14 14 14 13 13 13
23 24 24 23 23 23 23 24 24 23 22 22 21 21 21 21 20 20 19 18 18 18 18 17 17 17 17 16 16 16 16 16 15 15 15 15 14 14 14 14 14 14 14 14 14 13 13 13 13
23 23 23 23 23 23 23 23 24 24 23 22 22 21 21 20 20 19 19 18 18 18 17 17 17 17 17 16 16 16 16 16 15 15 15 15 14 14 14 14 14 14 13 13 13 13 13 13 13
23 23 23 23 23 23 24 23 24 24 23 23 23 21 21 20 19 19 18 18 18 17 17 17 17 17 16 16 16 16 16 15 15 15 15 14 14 14 14 14 14 14 13 13 13 13 13 13 13
23 23 23 23 23 23 23 23 24 24 23 23 23 22 21 20 19 18 18 18 17 17 17 17 17 16 16 16 16 16 15 15 15 15 15 14 14 14 14 14 14 13 13 13 13 13 13 13 13
23 23 23 23 23 23 23 23 24 24 23 23 22 22 20 20 19 18 18 17 17 17 17 17 16 16 16 16 16 15 15 15 15 15 14 14 14 14 14 14 13 13 13 13 13 13 13 13 13
23 24 23 22 23 23 23 23 24 23 22 22 21 21 20 20 19 18 18 17 17 17 16 16 16 16 16 16 16 15 15 15 15 14 14 14 14 14 14 14 13 13 13 13 13 13 13 13 13
23 23 24 23 23 23 24 24 24 23 23 22 21 21 20 20 19 18 18 17 17 16 16 16 16 16 16 15 15 15 15 15 15 14 14 14 14 14 13 13 13 13 13 13 13 13 13 13 13
23 23 23 23 22 22 23 23 24 23 23 23 22 21 20 19 19 18 17 17 17 16 16 16 16 16 15 15 15 15 15 15 14 14 14 14 14 14 13 13 13 13 13 13 13 13 13 13 13
22 22 23 23 23 22 22 23 24 23 23 22 22 21 20 19 19 18 17 17 17 16 16 16 16 15 15 15 15 15 15 14 14 14 14 14 13 13 13 13 13 13 13 13 13 13 13 13 13
22 23 23 22 22 22 22 23 23 23 22 22 21 20 20 19 18 18 17 17 17 16 16 16 15 15 15 15 15 14 14 14 14 14 14 13 13 13 13 13 13 13 13 13 12 13 12 12 12
Wind_Speed
4 2 2 2 1 4 7 5 4 4 4 5 6 5 6 7 5 4 3 3 3 3 4 4 6 6 7 7 7 7 7 7 7 7 7 7 7 6 6 6 7 7 7 6 6 6 7 6 6
2 1 2 1 1 5 6 5 6 6 5 4 4 5 5 6 5 5 4 3 3 4 4 6 6 6 6 7 7 7 7 7 7 7 7 7 7 7 7 7 7 7 7 6 6 7 7 7 7
3 1 1 1 3 5 6 6 6 6 4 2 3 4 4 5 4 3 4 3 3 4 5 7 6 6 7 7 7 8 7 7 7 7 7 7 7 7 7 7 7 7 7 7 6 6 7 7 7
2 1 1 4 9 7 6 6 5 6 5 4 4 5 5 5 3 5 5 4 4 4 5 8 7 7 7 7 8 8 8 8 8 8 8 8 8 8 8 8 7 7 7 7 7 7 7 7 6
1 0 3 7 8 6 5 4 3 4 4 4 4 6 6 5 6 6 5 5 5 5 6 7 8 8 7 7 8 8 9 9 9 9 9 9 8 8 8 7 8 8 8 8 8 8 8 8 7
1 1 4 7 8 6 5 4 4 5 6 5 5 6 5 6 6 6 5 5 5 5 5 6 7 7 8 8 8 8 9 10 10 10 10 10 9 9 9 9 9 9 9 9 8 8 8 8 7
1 3 5 7 7 6 5 3 3 4 5 4 3 4 6 6 5 5 5 5 5 5 5 5 6 7 8 8 9 9 9 10 11 11 11 10 10 10 10 9 9 9 8 8 8 8 8 7 7
1 3 6 6 6 6 4 3 3 3 4 4 2 3 5 6 5 5 5 5 4 4 4 5 5 6 7 9 10 9 10 10 10 10 10 9 9 10 9 10 10 10 10 9 9 9 8 8 8
1 3 5 5 5 5 4 4 3 3 4 3 3 4 6 7 7 6 5 5 5 4 4 4 5 6 6 7 8 8 8 7 6 8 8 5 8 9 9 12 11 11 11 11 10 10 8 7 8
2 5 5 4 4 5 4 3 3 3 4 5 5 6 7 7 6 5 5 5 5 5 4 4 4 5 5 5 5 5 6 6 6 7 7 6 7 8 8 10 11 11 10 9 9 7 5 3 6
4 5 5 4 4 4 4 3 3 3 3 3 5 7 7 7 6 5 4 4 4 4 4 4 4 4 4 4 4 4 4 5 5 6 6 5 6 5 5 5 6 6 6 7 6 4 5 6 6
5 5 4 4 4 3 3 3 3 2 2 3 4 6 7 6 5 5 4 4 4 4 4 4 3 4 4 5 4 4 4 4 4 4 6 5 4 4 5 4 5 5 5 5 5 4 6 7 7
5 4 3 3 3 3 3 3 2 2 2 3 5 6 6 5 5 4 4 4 4 4 4 4 3 3 4 4 3 3 4 4 4 4 4 5 4 4 4 4 5 5 5 5 5 5 6 6 7
4 5 3 3 3 3 4 3 2 2 4 5 6 6 5 5 4 4 4 4 4 3 3 4 3 3 3 3 3 4 4 3 4 4 4 5 4 4 4 5 5 5 5 5 5 6 6 6 6
5 4 3 2 2 3 3 2 2 3 4 5 5 5 5 4 4 4 3 3 3 3 3 4 3 3 3 3 3 3 2 3 3 3 4 5 4 3 4 4 4 4 4 5 5 6 5 6 5
3 3 2 3 1 2 3 1 3 4 5 5 4 5 5 5 4 4 3 3 3 3 4 4 3 3 3 3 2 2 3 3 3 3 3 4 4 4 4 3 4 4 4 4 4 4 5 5 5
3 2 1 2 2 2 3 2 2 4 5 5 5 5 5 5 5 4 3 3 3 3 3 4 4 4 3 3 2 2 2 3 3 3 3 4 4 4 4 3 3 4 3 3 4 4 4 5 5
2 2 2 2 1 3 4 4 3 4 6 6 5 5 5 5 4 4 3 3 4 4 4 4 4 4 4 3 2 3 2 2 3 3 3 4 3 3 3 3 2 3 3 3 3 4 4 4 4
2 3 3 1 1 3 5 5 3 4 6 6 6 6 6 5 4 4 4 4 4 5 5 4 5 5 4 3 3 2 2 2 2 2 3 3 3 3 3 2 2 2 2 3 3 4 4 3 3
5 5 4 1 1 3 5 6 4 4 6 6 6 6 6 5 5 5 4 4 4 5 5 5 5 5 4 3 2 2 2 2 2 2 2 2 2 2 2 2 2 2 2 2 3 2 1 2 1
7 6 4 3 2 4 5 4 4 4 4 4 5 5 5 5 5 6 5 4 4 5 5 4 4 5 5 4 3 3 3 2 2 2 2 2 2 1 1 1 1 1 1 2 1 1 1 1 1
5 3 5 5 5 3 3 4 2 3 4 5 5 5 5 5 5 5 5 5 5 4 4 4 4 4 4 5 4 4 3 2 1 1 1 2 2 2 1 1 1 1 1 2 1 0 0 1 1
3 1 4 5 6 6 5 6 2 3 4 4 5 5 5 5 6 6 5 5 5 4 4 4 4 4 4 4 5 4 3 2 2 1 2 1 1 1 2 1 1 1 1 1 1 1 0 0 0
3 3 3 4 6 6 4 5 3 1 2 2 3 5 5 6 6 6 5 5 5 5 4 4 4 5 4 4 4 4 3 3 3 2 2 1 1 1 1 2 2 2 2 2 2 1 1 1 1
6 6 4 4 4 3 1 5 3 1 1 2 2 4 6 6 6 6 6 6 5 5 5 4 5 5 5 4 4 4 3 3 3 2 2 2 1 1 1 2 2 2 2 2 2 2 2 2 2
6 7 5 4 4 3 3 5 1 1 0 2 3 4 5 6 6 6 6 6 6 5 5 5 5 4 5 5 4 4 3 2 2 2 2 2 2 1 2 2 2 2 3 3 3 3 3 2 2
5 6 5 6 6 6 4 3 2 2 2 2 3 4 5 6 5 6 6 6 6 6 5 5 5 5 4 4 4 4 3 3 2 2 2 2 2 2 2 3 3 3 3 4 3 3 3 2 2
3 3 4 5 4 6 5 6 3 2 1 2 3 4 5 5 5 5 6 6 6 5 5 5 5 5 4 4 4 3 4 3 3 3 3 2 2 2 3 4 4 4 4 4 4 4 3 3 2
5 5 6 6 6 6 5 2 1 0 1 1 2 3 5 5 5 5 5 6 6 6 6 5 5 5 4 5 4 4 4 4 4 3 3 3 3 3 3 4 4 4 4 4 4 4 4 4 4
6 7 8 8 7 7 7 3 3 0 1 2 2 3 4 5 5 5 5 6 6 6 6 6 6 5 5 5 5 5 4 4 4 4 3 3 3 3 4 4 4 4 5 4 4 5 5 4 4
Wind_Direction
158 161 208 235 181 95 82 78 74 76 68 60 56 57 59 45 34 61 77 59 39 48 43 48 45 43 46 50 53 53 63 69 68 68 71 72 72 67 74 81 87 84 80 80 83 88 90 91 92
145 173 227 247 135 104 87 83 82 68 81 87 69 63 66 64 57 81 94 77 58 56 50 49 47 46 50 53 52 55 64 67 68 67 69 69 70 66 74 81 86 85 84 80 80 84 87 86 87
145 231 299 70 78 80 94 90 89 90 90 79 74 57 48 62 70 82 86 97 79 65 60 58 47 53 55 57 55 56 62 61 67 71 72 72 72 73 76 77 86 94 94 88 82 78 81 83 85
198 190 103 90 88 73 87 98 105 107 89 74 87 84 76 61 70 91 102 96 86 76 67 66 48 55 58 59 61 58 62 61 61 66 69 71 69 72 75 78 82 89 93 90 85 81 78 79 79
216 154 111 101 89 84 84 84 110 95 86 83 85 91 90 83 93 103 105 92 80 73 73 75 57 55 59 63 65 64 63 64 64 65 67 70 66 68 70 73 78 80 82 85 85 81 77 79 78
152 128 117 105 100 96 92 102 111 94 95 97 95 97 94 111 112 106 101 93 84 80 81 87 80 64 61 64 68 68 67 67 67 67 67 68 66 68 71 72 77 80 78 80 83 84 80 80 81
80 94 103 111 113 109 93 97 99 98 99 90 96 99 114 119 115 116 108 98 89 85 83 80 82 89 87 75 69 71 70 68 67 68 68 68 70 72 72 73 75 77 76 78 78 84 83 77 73
72 116 116 113 117 106 104 107 88 84 90 95 105 100 117 129 131 129 119 111 101 94 86 79 79 76 79 84 80 73 71 68 70 71 71 75 84 82 77 78 73 71 71 72 75 77 79 75 72
178 123 111 111 117 111 124 122 100 98 114 114 97 88 107 130 141 140 132 121 108 100 93 91 86 81 79 80 87 87 87 78 89 90 82 79 78 77 77 68 70 69 68 68 70 71 76 85 85
120 103 98 100 113 117 125 117 115 134 122 120 119 119 127 142 149 146 136 122 111 105 96 88 88 86 83 80 87 81 78 75 68 70 70 66 68 70 73 82 76 73 74 77 74 78 92 90 84
94 97 106 110 112 121 126 120 121 138 114 122 133 140 147 151 154 149 136 116 104 102 103 99 94 90 86 87 80 74 70 69 68 66 70 68 74 79 74 81 87 83 81 76 81 80 68 71 67
106 99 113 119 123 132 127 126 118 106 92 108 129 140 151 158 157 154 140 127 125 115 113 109 103 98 90 88 83 77 72 68 65 62 64 67 68 64 68 68 64 64 68 63 59 62 74 73 72
111 106 104 118 130 133 128 128 118 101 113 130 139 148 157 157 154 151 143 138 134 128 129 119 116 102 99 92 87 81 71 62 70 59 59 67 71 68 69 68 62 59 61 62 53 63 77 70 65
112 123 124 127 135 141 133 123 141 133 139 147 157 162 163 161 162 159 160 159 152 150 143 139 139 127 119 112 100 79 71 75 62 66 65 70 77 77 71 68 61 59 57 56 58 64 72 69 66
137 136 136 135 141 145 162 135 142 146 163 166 170 169 169 172 175 181 171 174 169 160 154 146 144 143 135 116 98 87 80 70 70 69 66 73 71 75 73 69 69 69 70 69 63 65 65 70 71
171 179 146 123 145 173 226 160 133 164 187 187 187 180 183 190 195 189 187 187 181 173 163 154 158 160 146 133 122 99 88 78 77 74 64 66 70 67 71 71 73 77 74 72 69 64 67 70 69
192 191 138 143 172 202 233 257 187 192 207 206 200 194 191 191 198 196 193 196 191 189 181 166 160 161 152 145 135 107 91 88 81 78 72 66 69 70 80 73 78 85 78 73 73 70 70 72 70
199 221 222 228 177 239 248 259 225 205 219 221 210 208 201 203 200 190 191 194 192 193 193 177 162 173 155 158 152 127 103 94 88 83 83 72 69 70 82 92 93 92 87 82 84 87 79 76 75
247 258 260 258 224 256 264 271 249 216 217 223 217 213 210 203 192 180 179 181 183 187 191 181 176 173 167 166 165 147 126 111 97 80 77 84 79 76 81 82 80 85 88 94 103 105 106 100 91
242 253 262 257 193 251 275 274 250 230 223 226 224 215 209 198 187 182 182 177 178 180 188 184 182 176 174 174 162 152 129 113 92 98 107 101 95 90 92 100 99 98 91 100 105 121 115 99 77
245 256 268 284 277 232 275 257 211 208 208 212 221 221 211 203 197 185 180 178 178 184 188 184 178 175 178 174 161 147 134 143 140 132 110 103 109 117 118 106 117 112 115 109 123 144 137 122 90
247 260 260 254 264 271 268 288 232 204 206 206 211 212 208 197 194 187 180 178 182 182 182 181 170 172 170 170 172 172 178 175 158 143 132 138 142 143 142 136 145 144 135 142 150 111 242 211 155
265 269 248 254 264 271 250 269 240 182 219 219 211 205 202 192 185 181 179 179 177 167 169 176 169 167 164 174 173 186 186 181 161 165 162 165 142 158 168 169 177 185 174 177 174 178 269 192 217
186 203 211 236 249 256 260 261 267 205 261 247 207 198 193 188 181 177 170 168 163 160 160 166 169 166 166 179 185 190 184 187 179 189 186 185 164 182 187 208 205 203 205 190 201 201 209 238 221
213 241 245 232 228 251 215 254 262 360 314 270 237 198 188 185 180 176 171 170 167 167 168 168 171 174 176 187 197 194 194 195 190 189 194 213 213 207 206 220 221 216 212 200 204 215 224 219 223
224 242 255 273 268 272 219 246 250 44 277 240 213 188 176 177 180 177 175 174 172 171 174 177 177 178 180 189 195 196 190 197 188 190 203 223 232 237 234 227 228 220 212 209 206 226 225 234 228
224 233 268 275 275 273 246 238 233 171 173 177 178 176 177 176 178 177 174 175 173 173 175 179 179 180 183 191 193 195 195 200 206 210 211 222 236 240 235 239 241 231 227 225 220 230 226 234 245
263 217 221 243 265 264 256 248 234 180 198 174 177 187 184 181 185 182 178 177 176 175 176 179 184 183 184 191 197 202 202 204 218 220 220 234 244 249 243 239 238 235 232 226 226 236 236 234 232
194 207 230 243 252 266 272 246 59 302 314 255 215 201 192 190 192 189 186 183 179 178 179 185 189 194 193 202 204 206 204 209 208 218 218 233 248 250 248 246 246 237 232 229 222 232 226 231 228
249 238 231 244 244 249 270 271 96 119 305 279 262 224 209 202 199 195 190 188 188 190 193 196 197 199 202 208 211 214 209 218 219 218 220 235 251 258 254 250 244 235 231 232 233 230 225 229 235
Height
1515 1515 1516 1517 1516 1516 1523 1523 1521 1522 1523 1527 1527 1526 1526 1528 1530 1536 1536 1533 1532 1532 1530 1529 1527 1527 1526 1525 1525 1525 1524 1524 1524 1523 1523 1523 1523 1523 1522 1523 1523 1523 1524 1524 1524 1525 1524 1524 1524
1516 1516 1518 1517 1514 1521 1527 1523 1523 1524 1527 1528 1528 1528 1528 1531 1533 1535 1535 1534 1533 1532 1531 1530 1528 1528 1527 1526 1526 1525 1525 1525 1524 1524 1524 1524 1524 1523 1523 1523 1524 1524 1524 1524 1525 1525 1525 1525 1525
1517 1517 1519 1515 1517 1521 1526 1524 1524 1527 1529 1529 1529 1530 1531 1533 1535 1536 1536 1535 1534 1533 1532 1531 1529 1529 1528 1527 1527 1526 1526 1526 1526 1525 1525 1525 1524 1524 1524 1524 1524 1524 1525 1525 1525 1526 1526 1526 1526
1518 1520 1519 1518 1523 1523 1523 1524 1526 1527 1529 1530 1530 1531 1534 1536 1537 1537 1536 1536 1535 1535 1534 1532 1530 1529 1529 1528 1528 1527 1527 1527 1527 1526 1526 1526 1526 1525 1525 1525 1525 1525 1525 1525 1526 1526 1526 1526 1526
1519 1519 1518 1522 1525 1525 1525 1526 1527 1527 1529 1530 1530 1532 1535 1538 1537 1537 1537 1537 1537 1536 1535 1534 1532 1531 1530 1530 1529 1529 1529 1528 1528 1528 1527 1527 1527 1527 1526 1526 1526 1526 1526 1526 1526 1527 1527 1527 1527
1521 1518 1520 1526 1527 1526 1526 1528 1528 1528 1530 1531 1532 1533 1537 1539 1538 1539 1538 1538 1538 1537 1536 1535 1534 1533 1532 1531 1531 1531 1530 1530 1529 1529 1529 1528 1528 1528 1528 1527 1527 1527 1527 1527 1527 1527 1527 1527 1527
1521 1518 1522 1525 1528 1527 1528 1529 1529 1529 1530 1532 1533 1534 1537 1539 1539 1539 1539 1539 1539 1538 1538 1537 1536 1535 1534 1533 1533 1532 1532 1532 1531 1531 1530 1530 1530 1529 1529 1529 1528 1528 1528 1528 1527 1527 1527 1527 1528
1521 1521 1523 1524 1527 1528 1530 1531 1531 1531 1532 1534 1535 1534 1537 1540 1539 1540 1540 1540 1540 1539 1539 1538 1538 1537 1537 1536 1535 1534 1534 1533 1533 1533 1532 1532 1531 1531 1531 1530 1530 1529 1529 1528 1528 1528 1528 1528 1528
1522 1522 1525 1526 1527 1529 1530 1531 1532 1533 1533 1535 1535 1536 1538 1539 1539 1540 1541 1541 1541 1540 1540 1540 1539 1539 1538 1538 1537 1536 1536 1535 1535 1535 1534 1534 1534 1533 1533 1532 1531 1530 1530 1529 1528 1528 1528 1528 1528
1522 1523 1526 1526 1527 1528 1530 1531 1532 1533 1533 1534 1536 1538 1538 1539 1540 1541 1541 1541 1542 1542 1542 1541 1541 1540 1540 1539 1539 1539 1539 1538 1537 1537 1536 1536 1535 1534 1534 1533 1532 1531 1531 1530 1529 1529 1528 1529 1529
1523 1524 1526 1528 1529 1530 1531 1532 1533 1532 1532 1534 1536 1537 1538 1540 1540 1541 1542 1542 1542 1542 1542 1542 1542 1542 1541 1541 1541 1540 1540 1539 1539 1538 1538 1537 1537 1536 1535 1535 1534 1533 1532 1531 1530 1529 1529 1529 1530
1525 1527 1528 1529 1531 1531 1531 1532 1533 1533 1534 1535 1536 1537 1539 1540 1541 1541 1542 1543 1543 1543 1543 1543 1543 1543 1542 1542 1542 1542 1541 1541 1540 1540 1540 1539 1538 1537 1537 1536 1535 1535 1533 1532 1530 1528 1529 1530 1531
1526 1528 1530 1530 1531 1532 1532 1533 1533 1534 1535 1536 1537 1538 1539 1540 1541 1542 1542 1543 1543 1543 1543 1543 1543 1543 1543 1543 1543 1543 1542 1542 1542 1541 1540 1540 1539 1538 1538 1537 1536 1536 1535 1533 1531 1528 1528 1530 1531
1528 1529 1530 1531 1531 1532 1532 1533 1534 1534 1536 1536 1537 1538 1539 1540 1541 1542 1542 1543 1543 1543 1544 1543 1544 1544 1544 1544 1544 1544 1544 1543 1543 1542 1541 1541 1540 1539 1539 1539 1537 1537 1536 1535 1533 1531 1531 1531 1532
1529 1529 1530 1530 1531 1532 1532 1532 1532 1534 1535 1536 1536 1537 1539 1540 1541 1541 1542 1542 1543 1543 1544 1544 1544 1544 1545 1545 1545 1544 1544 1544 1543 1543 1543 1542 1541 1541 1540 1540 1539 1538 1537 1536 1535 1534 1533 1533 1533
1527 1527 1530 1530 1530 1531 1533 1533 1532 1534 1534 1534 1535 1536 1538 1539 1540 1541 1541 1542 1542 1543 1543 1543 1543 1544 1545 1545 1545 1545 1545 1544 1544 1544 1544 1543 1542 1542 1541 1541 1540 1539 1538 1538 1537 1536 1535 1535 1535
1526 1528 1529 1530 1530 1530 1530 1531 1531 1533 1533 1533 1534 1535 1536 1537 1539 1540 1540 1541 1542 1542 1543 1543 1544 1544 1544 1545 1545 1545 1545 1545 1545 1544 1544 1544 1543 1542 1542 1541 1541 1540 1539 1539 1538 1538 1538 1537 1537
1528 1527 1528 1529 1528 1529 1528 1528 1528 1531 1531 1531 1532 1533 1534 1535 1537 1538 1539 1540 1540 1541 1542 1543 1543 1543 1544 1544 1545 1545 1545 1545 1545 1545 1545 1544 1543 1543 1542 1542 1541 1541 1540 1540 1539 1539 1538 1538 1538
1524 1526 1527 1526 1526 1529 1527 1525 1525 1527 1529 1529 1530 1531 1532 1534 1536 1537 1538 1538 1539 1540 1541 1542 1542 1543 1543 1544 1545 1546 1546 1546 1546 1545 1545 1544 1544 1543 1543 1542 1542 1541 1541 1541 1540 1540 1540 1540 1540
1525 1527 1526 1525 1526 1527 1525 1524 1522 1524 1525 1527 1527 1528 1530 1532 1534 1535 1536 1537 1538 1539 1540 1541 1542 1543 1543 1544 1545 1545 1545 1546 1546 1545 1545 1545 1544 1544 1543 1543 1542 1541 1541 1541 1541 1540 1541 1540 1540
1525 1525 1524 1526 1526 1525 1526 1523 1520 1521 1524 1525 1526 1527 1528 1530 1531 1533 1535 1536 1537 1538 1539 1540 1541 1542 1543 1543 1544 1545 1545 1545 1546 1546 1545 1545 1544 1544 1543 1543 1542 1542 1542 1541 1541 1541 1541 1541 1541
1525 1523 1524 1526 1526 1525 1527 1527 1517 1517 1519 1522 1524 1525 1526 1528 1530 1532 1533 1535 1536 1537 1538 1539 1540 1541 1542 1543 1544 1545 1545 1546 1546 1546 1545 1545 1544 1543 1543 1543 1542 1542 1542 1541 1541 1541 1541 1541 1542
1522 1523 1523 1524 1524 1525 1522 1525 1516 1515 1517 1517 1520 1522 1524 1526 1528 1530 1531 1533 1534 1535 1536 1538 1539 1540 1541 1542 1542 1544 1545 1545 1545 1545 1545 1544 1544 1543 1543 1542 1542 1542 1541 1541 1541 1541 1541 1541 1541
1523 1524 1524 1523 1523 1530 1522 1525 1520 1512 1514 1515 1517 1520 1522 1525 1527 1528 1530 1531 1533 1534 1535 1536 1538 1539 1539 1540 1542 1543 1543 1544 1544 1544 1544 1544 1543 1542 1542 1541 1541 1541 1541 1541 1541 1540 1540 1540 1540
1522 1524 1529 1530 1530 1526 1520 1523 1518 1511 1513 1515 1516 1518 1521 1523 1525 1527 1528 1530 1531 1532 1533 1535 1536 1537 1538 1539 1541 1541 1542 1543 1543 1543 1543 1542 1542 1542 1541 1541 1540 1540 1540 1540 1539 1539 1539 1539 1539
1519 1519 1529 1535 1531 1522 1519 1520 1512 1511 1514 1515 1516 1517 1519 1521 1523 1525 1526 1528 1529 1531 1532 1533 1535 1536 1537 1538 1539 1540 1540 1541 1541 1541 1541 1541 1541 1540 1540 1539 1539 1539 1538 1538 1538 1538 1538 1539 1539
1518 1518 1516 1521 1522 1525 1516 1512 1509 1510 1512 1514 1515 1516 1518 1520 1522 1524 1525 1526 1528 1529 1530 1532 1533 1534 1535 1536 1537 1538 1539 1539 1539 1539 1539 1539 1539 1538 1538 1538 1538 1537 1537 1537 1537 1537 1537 1537 1537
1517 1515 1519 1523 1530 1530 1520 1515 1511 1509 1509 1511 1513 1515 1517 1519 1521 1522 1524 1525 1526 1528 1529 1530 1531 1533 1533 1534 1535 1536 1536 1536 1537 1537 1537 1537 1537 1537 1536 1536 1536 1536 1535 1535 1535 1535 1535 1536 1536
1519 1520 1517 1517 1519 1526 1525 1516 1505 1507 1509 1510 1512 1514 1515 1517 1519 1521 1522 1523 1525 1526 1527 1528 1529 1530 1531 1532 1533 1533 1534 1534 1534 1534 1534 1534 1535 1534 1534 1534 1533 1533 1533 1534 1533 1533 1533 1534 1534
1514 1513 1515 1521 1519 1518 1520 1516 1505 1508 1509 1511 1512 1513 1514 1516 1517 1519 1520 1521 1522 1524 1525 1526 1527 1528 1528 1529 1530 1531 1531 1532 1532 1532 1532 1532 1532 1532 1531 1531 1531 1531 1531 1531 1531 1531 1531 1532 1532